Hamilton, OH

5:33 AM EDT on March 27, 2017 (GMT -0400)
Butler County Regional

Weather History for KHAO - April, 2014

Change the Weather History Date:

Friday, April 18, 2014

  Actual Average (KLUK) Record (KLUK)
Temperature  
Mean Temperature 56 °F -  
Max Temperature 73 °F 68 °F 87 °F (1977)
Min Temperature 41 °F 44 °F 29 °F (1951)
Degree Days  
Heating Degree Days 8    
Growing Degree Days 6 (Base 50)    
Moisture  
Dew Point 40 °F    
Average Humidity 59    
Maximum Humidity 93    
Minimum Humidity 29    
Precipitation  
Precipitation 0.00 in - - ()
Sea Level Pressure  
Sea Level Pressure 30.27 in    
Wind  
Wind Speed 1 mph (NNE)    
Max Wind Speed 6 mph    
Max Gust Speed -    
Visibility 10 miles    
Events      
Averages and records for this station are not official NWS values.
T = Trace of Precipitation, MM = Missing Value Source: NWS Daily Summary

Daily Weather History Graph

Daily Weather History Graph

Search for Another Location

Airport or City:

Trip Planner

Search our weather history database for the weather conditions in past years. The results will help you decide how hot, cold, wet, or windy it might be!

Date:

Astronomy

Apr. 18, 2014 Rise Set
Actual Time 6:56 AM EDT 8:18 PM EDT
Civil Twilight 6:28 AM EDT 8:46 PM EDT
Nautical Twilight 5:55 AM EDT 9:20 PM EDT
Astronomical Twilight 5:20 AM EDT 9:55 PM EDT
Moon No Moon Rise 9:18 AM EDT (4/18)
Length of Visible Light 14h 18m
Length of Day
13h 22m
Waning Gibbous, 87% of the Moon is Illuminated
Apr 18
Waning Gibbous
Apr 22
Last Quarter
Apr 29
New
May 6
First Quarter
May 14
Full

Hourly Weather History & Observations

Time (EDT) Temp. Dew Point Humidity Pressure Visibility Wind Dir Wind Speed Gust Speed Precip Events Conditions
12:53 AM 42.1 °F 37.0 °F 82% 30.28 in 10.0 mi Calm Calm - N/A   Clear
1:53 AM 44.1 °F 39.0 °F 82% 30.27 in 10.0 mi Calm Calm - N/A   Clear
2:53 AM 41.0 °F 37.0 °F 86% 30.27 in 10.0 mi Calm Calm - N/A   Clear
3:53 AM 41.0 °F 37.0 °F 86% 30.27 in 10.0 mi Calm Calm - N/A   Clear
4:53 AM 41.0 °F 37.0 °F 86% 30.28 in 10.0 mi Calm Calm - N/A   Clear
5:53 AM 41.0 °F 37.9 °F 89% 30.29 in 10.0 mi Calm Calm - N/A   Clear
6:53 AM 41.0 °F 39.0 °F 93% 30.30 in 10.0 mi Calm Calm - N/A   Clear
8:53 AM 48.9 °F 42.1 °F 77% 30.32 in 10.0 mi Calm Calm - N/A   Clear
9:53 AM 57.0 °F 43.0 °F 59% 30.32 in 10.0 mi Calm Calm - N/A   Clear
10:53 AM 62.1 °F 42.1 °F 48% 30.31 in 10.0 mi Calm Calm - N/A   Clear
11:53 AM 66.0 °F 39.9 °F 38% 30.31 in 10.0 mi Calm Calm - N/A   Clear
12:53 PM 66.9 °F 39.0 °F 36% 30.30 in 10.0 mi NNW 5.8 mph - N/A   Clear
1:53 PM 69.1 °F 39.9 °F 35% 30.28 in 10.0 mi East 4.6 mph - N/A   Clear
2:53 PM 71.1 °F 39.0 °F 31% 30.27 in 10.0 mi Calm Calm - N/A   Clear
3:53 PM 72.0 °F 37.9 °F 29% 30.26 in 10.0 mi North 5.8 mph - N/A   Partly Cloudy
4:53 PM 70.0 °F 39.0 °F 32% 30.24 in 10.0 mi ENE 3.5 mph - N/A   Mostly Cloudy
5:53 PM 70.0 °F 37.9 °F 31% 30.22 in 10.0 mi Calm Calm - N/A   Mostly Cloudy
6:53 PM 70.0 °F 37.0 °F 30% 30.22 in 10.0 mi Calm Calm - N/A   Scattered Clouds
8:53 PM 57.0 °F 43.0 °F 59% 30.23 in 10.0 mi North 3.5 mph - N/A   Clear
9:53 PM 55.0 °F 46.0 °F 72% 30.24 in 10.0 mi Calm Calm - N/A   Clear
11:53 PM 57.0 °F 41.0 °F 55% 30.25 in 10.0 mi North 5.8 mph - N/A   Clear